Weather History for TGPY - November, 2012

Change the Weather History Date:

Wednesday, November 21, 2012

  Actual Average Record
Temperature  
Mean Temperature 83 °F -  
Max Temperature 89 °F 83 °F 89 °F (2012)
Min Temperature 77 °F 74 °F 74 °F (2013)
Cooling Degree Days 18    
Growing Degree Days 33 (Base 50)    
Moisture  
Dew Point 76 °F    
Average Humidity 79    
Maximum Humidity 94    
Minimum Humidity 61    
Precipitation  
Precipitation 0.00 in - - ()
Sea Level Pressure  
Sea Level Pressure 29.84 in    
Wind  
Wind Speed 7 mph ()    
Max Wind Speed 17 mph    
Max Gust Speed -    
Visibility 8.0 miles    
Events      
Averages and records for this station are not official NWS values.
T = Trace of Precipitation, MM = Missing Value Source: Averaged Metar Reports

Daily Weather History Graph

Daily Weather History Graph

Search for Another Location

Airport or City:

Trip Planner

Search our weather history database for the weather conditions in past years. The results will help you decide how hot, cold, wet, or windy it might be!

Date:

Astronomy

Nov. 21, 2012 Rise Set
Actual Time 6:07 AM AST 5:38 PM AST
Civil Twilight 5:44 AM AST 6:01 PM AST
Nautical Twilight 5:18 AM AST 6:27 PM AST
Astronomical Twilight 4:53 AM AST 6:53 PM AST
Moon 12:55 PM AST (11/21) 12:25 AM AST (11/21)
Length of Visible Light 12h 16m
Length of Day
11h 31m
First Quarter, 61% of the Moon is Illuminated
Nov 21
First Quarter
Nov 28
Full
Dec 6
Last Quarter
Dec 13
New
Dec 20
First Quarter

Hourly Weather History & Observations

Time (AST) Temp. Heat Index Dew Point Humidity Pressure Visibility Wind Dir Wind Speed Gust Speed Precip Events Conditions
12:00 AM 78.8 °F - 75.2 °F 89% 29.86 in 6.2 mi East 4.6 mph - N/A   Partly Cloudy
1:00 AM 78.8 °F - 77.0 °F 94% 29.83 in 6.2 mi Variable 2.3 mph - N/A   Partly Cloudy
2:00 AM 79 °F - 76 °F 87% 29.82 in 17 mi East 3.5 mph - -   Scattered Clouds
2:00 AM 78.8 °F - 75.2 °F 89% 29.80 in 6.2 mi East 3.5 mph - N/A   Partly Cloudy
3:00 AM 78.8 °F - 75.2 °F 89% 29.80 in 6.2 mi Variable 2.3 mph - N/A   Partly Cloudy
4:00 AM 78.8 °F - 75.2 °F 89% 29.80 in 6.2 mi Calm Calm - N/A   Partly Cloudy
5:00 AM 79 °F - 74 °F 80% 29.84 in 11 mi Calm Calm - -   Widespread Dust
5:00 AM 78.8 °F - 73.4 °F 83% 29.83 in 6.2 mi Calm Calm - N/A   Partly Cloudy
6:00 AM 78.8 °F - 73.4 °F 83% 29.83 in 6.2 mi Variable 2.3 mph - N/A   Partly Cloudy
6:30 AM 82.4 °F 89.5 °F 75.2 °F 79% 29.86 in 6.2 mi East 15.0 mph - N/A   Partly Cloudy
7:00 AM 80.6 °F 86.2 °F 75.2 °F 84% 29.86 in 6.2 mi East 9.2 mph - N/A   Scattered Clouds
8:00 AM 85 °F - 75 °F 66% 29.90 in 17 mi East 11.5 mph - -   Scattered Clouds
8:00 AM 84.2 °F 92.3 °F 75.2 °F 74% 29.89 in 6.2 mi East 11.5 mph - N/A   Partly Cloudy
9:00 AM 84.2 °F 92.3 °F 75.2 °F 74% 29.89 in 6.2 mi SE 13.8 mph - N/A   Partly Cloudy
10:00 AM 86.0 °F 96.9 °F 77.0 °F 74% 29.89 in 6.2 mi ESE 17.3 mph - N/A   Scattered Clouds
11:00 AM 87 °F - 76 °F 61% 29.89 in 17 mi ESE 17.3 mph - -   Scattered Clouds
11:00 AM 87.8 °F 97.6 °F 75.2 °F 66% 29.89 in 6.2 mi ESE 17.3 mph - N/A   Partly Cloudy
12:00 PM 87.8 °F 97.6 °F 75.2 °F 66% 29.86 in 6.2 mi ESE 13.8 mph - N/A   Partly Cloudy
1:00 PM 87.8 °F 99.7 °F 77.0 °F 70% 29.83 in 6.2 mi ESE 17.3 mph - N/A   Scattered Clouds
2:00 PM 87 °F - 77 °F 66% 29.82 in 16 mi ESE 12.7 mph - -   Partly Cloudy
2:00 PM 87.8 °F 99.7 °F 77.0 °F 70% 29.80 in 6.2 mi ESE 12.7 mph - N/A   Scattered Clouds
3:00 PM 86.0 °F 96.9 °F 77.0 °F 74% 29.80 in 6.2 mi ESE 13.8 mph - N/A   Partly Cloudy
4:00 PM 86.0 °F 96.9 °F 77.0 °F 74% 29.80 in 6.2 mi ESE 16.1 mph - N/A   Partly Cloudy
5:00 PM 84.2 °F 94.1 °F 77.0 °F 79% 29.80 in 6.2 mi East 13.8 mph - N/A   Partly Cloudy
6:00 PM 82.4 °F 90.9 °F 77.0 °F 84% 29.83 in 6.2 mi East 11.5 mph - N/A   Partly Cloudy
7:00 PM 82.4 °F 90.9 °F 77.0 °F 84% 29.83 in 6.2 mi East 10.4 mph - N/A   Partly Cloudy
8:00 PM 82.4 °F 90.9 °F 77.0 °F 84% 29.86 in 6.2 mi East 13.8 mph - N/A   Partly Cloudy
9:00 PM 82.4 °F 90.9 °F 77.0 °F 84% 29.86 in 6.2 mi ESE 15.0 mph - N/A   Partly Cloudy
10:00 PM 82.4 °F 92.4 °F 78.8 °F 89% 29.86 in 6.2 mi ESE 15.0 mph - N/A   Partly Cloudy
11:00 PM 82 °F - 78 °F 85% 29.87 in 16 mi ESE 11.5 mph - -   Partly Cloudy
11:00 PM 82.4 °F 92.4 °F 78.8 °F 89% 29.86 in 6.2 mi ESE 11.5 mph - N/A   Scattered Clouds